GW1920 Weather Reports


Display with metric or nautical units.
time (UTC)temp
F
wind
direction
speed
MPH
gust
MPH
rain 1hr
in
rain 24hr
in
rain mn
in
humidity
%
barometer
mb
20260904182012 63 343 0.0 0.0 0.00 0.00 0.00 80 1009.9
20260904181508 63 344 0.0 0.0 0.00 0.00 0.00 76 1010.0
20260904181002 62 9 0.0 0.0 0.00 0.00 0.00 83 1009.6
20260904180502 63 9 0.0 0.0 0.00 0.00 0.00 77 1009.9
20260904175956 62 41 0.0 0.0 0.00 0.00 0.00 82 1009.8
20260904175455 62 8 0.0 0.0 0.00 0.00 0.00 77 1009.9
20260904174950 62 15 0.0 0.0 0.00 0.00 0.00 81 1009.8
20260904174445 61 15 0.0 0.0 0.00 0.00 0.00 83 1010.1
20260904173942 61 24 0.0 0.0 0.00 0.00 0.00 77 1009.8
20260904173442 62 18 0.0 0.0 0.00 0.00 0.00 76 1009.8
20260904172937 61 16 0.0 0.0 0.00 0.00 0.00 82 1009.7
20260904172432 61 313 0.0 0.0 0.00 0.00 0.00 78 1009.5
20260904171926 60 298 1.0 2.0 0.00 0.00 0.00 78 1009.5
20260904171422 60 20 0.0 0.0 0.00 0.00 0.00 87 1009.4
20260904170918 60 346 0.0 1.0 0.00 0.00 0.00 91 1009.5
20260904170413 60 14 0.0 0.0 0.00 0.00 0.00 92 1009.4
20260904165908 60 345 0.0 0.0 0.00 0.00 0.00 92 1009.2
20260904165407 59 344 0.0 0.0 0.00 0.00 0.00 92 1008.9
20260904164907 59 343 0.0 0.0 0.00 0.00 0.00 93 1009.1
20260904164407 59 345 0.0 0.0 0.00 0.00 0.00 95 1008.7
20260904163903 58 343 0.0 0.0 0.00 0.00 0.00 94 1008.7
20260904163403 57 6 0.0 0.0 0.00 0.00 0.00 95 1008.9
20260904162902 57 6 0.0 0.0 0.00 0.00 0.00 96 1009.1
20260904162357 57 4 0.0 0.0 0.00 0.00 0.00 96 1008.7
20260904161853 56 5 0.0 0.0 0.00 0.00 0.00 96 1008.7
20260904161348 56 1 0.0 0.0 0.00 0.00 0.00 97 1008.8
20260904160844 56 18 0.0 0.0 0.00 0.00 0.00 97 1008.6
20260904160338 56 19 0.0 0.0 0.00 0.00 0.00 98 1008.7
20260904155833 55 23 0.0 0.0 0.00 0.00 0.00 98 1008.6
20260904155328 55 34 0.0 0.0 0.00 0.00 0.00 98 1008.7
20260904154827 55 24 0.0 0.0 0.00 0.00 0.00 98 1008.7
20260904154321 55 352 0.0 0.0 0.00 0.00 0.00 98 1008.7
20260904153817 54 25 0.0 0.0 0.00 0.00 0.00 99 1008.4
20260904153312 54 21 0.0 0.0 0.00 0.00 0.00 99 1008.5
20260904152809 54 15 0.0 0.0 0.00 0.00 0.00 99 1008.8
20260904152306 53 31 0.0 0.0 0.00 0.00 0.00 99 1008.6
20260904151758 53 16 0.0 0.0 0.00 0.00 0.00 99 1008.4
20260904151257 53 35 0.0 0.0 0.00 0.00 0.00 99 1008.6
20260904150754 53 27 0.0 0.0 0.00 0.00 0.00 99 1008.5
20260904150248 53 15 0.0 0.0 0.00 0.00 0.00 99 1008.4
20260904145746 52 18 0.0 0.0 0.00 0.00 0.00 99 1008.5
20260904145242 52 39 0.0 0.0 0.00 0.00 0.00 99 1008.3
20260904144738 52 29 0.0 0.0 0.00 0.00 0.00 99 1008.3
20260904144233 52 19 0.0 0.0 0.00 0.00 0.00 99 1008.3
20260904143729 52 42 0.0 0.0 0.00 0.00 0.00 99 1008.3
20260904143226 52 31 0.0 0.0 0.00 0.00 0.00 99 1008.1
20260904142721 52 32 0.0 0.0 0.00 0.00 0.00 99 1008.0
20260904142217 51 34 0.0 0.0 0.00 0.00 0.00 99 1008.3
20260904141717 51 27 0.0 0.0 0.00 0.00 0.00 99 1007.9
20260904141213 51 19 0.0 0.0 0.00 0.00 0.00 99 1007.7
20260904140708 51 19 0.0 0.0 0.00 0.00 0.00 99 1007.9
20260904140203 51 41 0.0 0.0 0.00 0.00 0.00 99 1007.7
20260904135702 52 33 0.0 0.0 0.00 0.00 0.00 99 1007.7
20260904135157 52 30 0.0 0.0 0.00 0.00 0.00 99 1007.6
20260904134653 52 23 0.0 0.0 0.00 0.00 0.00 99 1007.6
20260904134152 52 19 0.0 0.0 0.00 0.00 0.00 99 1007.4
20260904133648 52 6 0.0 0.0 0.00 0.00 0.00 99 1007.3
20260904133143 52 12 0.0 0.0 0.00 0.00 0.00 99 1007.4
20260904132643 51 41 0.0 0.0 0.00 0.00 0.00 99 1007.2
20260904132138 51 33 0.0 0.0 0.00 0.00 0.00 99 1007.5
20260904131637 51 16 0.0 0.0 0.00 0.00 0.00 99 1007.3
20260904131133 51 25 0.0 0.0 0.00 0.00 0.00 99 1007.3
20260904130632 52 18 0.0 0.0 0.00 0.00 0.00 99 1007.5
20260904130127 52 20 0.0 0.0 0.00 0.00 0.00 99 1007.6
20260904125624 52 17 0.0 0.0 0.00 0.00 0.00 99 1007.5
20260904125119 52 26 0.0 0.0 0.00 0.00 0.00 99 1007.4
20260904124614 52 33 0.0 0.0 0.00 0.00 0.00 99 1007.3
20260904124109 52 40 0.0 0.0 0.00 0.00 0.00 99 1007.3
20260904123604 52 15 0.0 0.0 0.00 0.00 0.00 99 1007.5
20260904123059 52 31 0.0 0.0 0.00 0.00 0.00 99 1007.5
20260904122554 52 41 0.0 0.0 0.00 0.00 0.00 99 1007.5
20260904122049 52 39 0.0 1.0 0.00 0.00 0.00 99 1007.6
20260904121544 52 16 0.0 0.0 0.00 0.00 0.00 99 1007.5
20260904121040 52 31 0.0 0.0 0.00 0.00 0.00 99 1007.6
20260904120536 52 344 0.0 0.0 0.00 0.00 0.00 99 1007.8
20260904120031 52 22 0.0 0.0 0.00 0.00 0.00 99 1007.3
20260904115527 51 37 0.0 0.0 0.00 0.00 0.00 99 1007.4
20260904115027 52 24 0.0 0.0 0.00 0.00 0.00 99 1007.5
20260904114521 51 29 0.0 0.0 0.00 0.00 0.00 99 1007.5
20260904114016 51 26 0.0 0.0 0.00 0.00 0.00 99 1007.5
20260904113516 51 35 0.0 0.0 0.00 0.00 0.00 99 1007.5
20260904113010 51 14 0.0 0.0 0.00 0.00 0.00 99 1007.5
20260904112505 51 33 0.0 0.0 0.00 0.00 0.00 99 1007.5
20260904112001 51 29 0.0 0.0 0.00 0.00 0.00 99 1007.6
20260904111456 51 16 0.0 0.0 0.00 0.00 0.00 99 1007.5
20260904110952 51 8 0.0 0.0 0.00 0.00 0.00 99 1007.4
20260904110451 51 19 0.0 0.0 0.00 0.00 0.00 99 1007.5
20260904105946 51 6 0.0 0.0 0.00 0.00 0.00 99 1007.2
20260904105441 51 29 0.0 0.0 0.00 0.00 0.00 99 1007.2
20260904104936 51 27 0.0 0.0 0.00 0.00 0.00 99 1007.4
20260904104436 51 18 0.0 0.0 0.00 0.00 0.00 99 1007.4
20260904103933 51 31 0.0 0.0 0.00 0.00 0.00 99 1007.4
20260904103428 51 29 0.0 0.0 0.00 0.00 0.00 99 1007.2
20260904102924 51 38 0.0 0.0 0.00 0.00 0.00 99 1007.2
20260904102420 52 24 0.0 0.0 0.00 0.00 0.00 99 1007.2
20260904101915 52 21 0.0 0.0 0.00 0.00 0.00 99 1007.0
20260904101412 52 19 0.0 0.0 0.00 0.00 0.00 99 1007.1
20260904100908 52 36 0.0 0.0 0.00 0.00 0.00 99 1007.1
20260904100403 52 17 0.0 0.0 0.00 0.00 0.00 99 1007.1
20260904095902 52 28 0.0 0.0 0.00 0.00 0.00 99 1007.1
20260904095357 52 8 0.0 0.0 0.00 0.00 0.00 99 1007.1
20260904094853 52 32 0.0 0.0 0.00 0.00 0.00 99 1007.2
20260904094348 52 27 0.0 0.0 0.00 0.00 0.00 99 1007.1
20260904093844 52 41 0.0 0.0 0.00 0.00 0.00 99 1007.1
20260904093344 53 39 0.0 0.0 0.00 0.00 0.00 99 1007.2
20260904092839 53 29 0.0 0.0 0.00 0.00 0.00 99 1007.3
20260904092336 53 28 0.0 0.0 0.00 0.00 0.00 99 1007.1
20260904091831 53 25 0.0 0.0 0.00 0.00 0.00 99 1007.3
20260904091327 53 24 0.0 0.0 0.00 0.00 0.00 99 1007.4
20260904090821 53 341 0.0 0.0 0.00 0.00 0.00 99 1007.3
20260904090318 53 22 0.0 0.0 0.00 0.00 0.00 99 1007.2
20260904085813 53 17 0.0 0.0 0.00 0.00 0.00 99 1007.3
20260904085308 53 14 0.0 0.0 0.00 0.00 0.00 99 1007.4
20260904084802 53 26 0.0 0.0 0.00 0.00 0.00 99 1007.4
20260904084258 53 29 0.0 0.0 0.00 0.00 0.00 99 1007.5
20260904083754 53 36 0.0 0.0 0.00 0.00 0.00 98 1007.6
20260904083250 54 54 0.0 0.0 0.00 0.00 0.00 99 1007.6
20260904082745 54 14 0.0 0.0 0.00 0.00 0.00 98 1007.6
20260904082239 54 11 0.0 0.0 0.00 0.00 0.00 98 1007.6
20260904081735 53 85 1.0 2.0 0.00 0.00 0.00 99 1007.7
20260904081231 54 17 0.0 0.0 0.00 0.00 0.00 99 1007.5
20260904080726 54 7 0.0 0.0 0.00 0.00 0.00 99 1007.6
20260904080222 54 45 0.0 0.0 0.00 0.00 0.00 99 1007.6
20260904075718 54 16 0.0 0.0 0.00 0.00 0.00 99 1007.5
20260904075212 53 20 0.0 0.0 0.00 0.00 0.00 99 1007.6
20260904074706 53 33 0.0 0.0 0.00 0.00 0.00 99 1007.7
20260904074201 53 101 0.0 0.0 0.00 0.00 0.00 99 1007.5
20260904073656 53 36 0.0 0.0 0.00 0.00 0.00 99 1007.7
20260904073152 53 11 0.0 0.0 0.00 0.00 0.00 99 1007.5
20260904072647 53 19 0.0 0.0 0.00 0.00 0.00 99 1007.4
20260904072142 54 48 0.0 0.0 0.00 0.00 0.00 99 1007.6
20260904071638 53 39 0.0 0.0 0.00 0.00 0.00 99 1007.5
20260904071133 53 69 0.0 0.0 0.00 0.00 0.00 99 1007.4
20260904070632 54 35 0.0 0.0 0.00 0.00 0.00 99 1007.5
20260904070127 53 17 0.0 0.0 0.00 0.00 0.00 99 1007.4
20260904065626 54 22 0.0 0.0 0.00 0.02 0.02 99 1007.5
20260904065124 54 16 0.0 0.0 0.00 0.02 0.02 99 1007.4
20260904064618 54 16 0.0 0.0 0.00 0.02 0.02 99 1007.5
20260904064113 54 18 0.0 0.0 0.00 0.02 0.02 99 1007.4
20260904063609 54 16 0.0 0.0 0.00 0.02 0.02 99 1007.3
20260904063104 54 7 0.0 0.0 0.00 0.02 0.02 99 1007.4
20260904062601 54 13 0.0 0.0 0.00 0.02 0.02 99 1007.3
20260904062056 54 43 0.0 0.0 0.00 0.02 0.02 99 1007.2
20260904061551 54 5 0.0 0.0 0.00 0.02 0.02 99 1007.4
20260904061048 54 19 0.0 0.0 0.00 0.02 0.02 99 1007.3
20260904060544 54 32 0.0 0.0 0.00 0.02 0.02 99 1007.4
20260904060039 54 15 0.0 0.0 0.00 0.02 0.02 99 1007.3
20260904055534 54 1 0.0 0.0 0.00 0.02 0.02 99 1007.4
20260904055029 54 18 0.0 0.0 0.00 0.02 0.02 99 1007.3
20260904054525 54 15 0.0 0.0 0.00 0.02 0.02 98 1007.5
20260904054021 54 12 0.0 0.0 0.00 0.02 0.02 98 1007.6
20260904053520 54 61 0.0 0.0 0.00 0.02 0.02 99 1007.6
20260904053016 54 32 0.0 0.0 0.00 0.02 0.02 99 1007.4
20260904052512 54 6 0.0 0.0 0.00 0.02 0.02 99 1007.5
20260904052008 54 14 0.0 0.0 0.00 0.02 0.02 99 1007.6
20260904051504 54 17 0.0 0.0 0.00 0.02 0.02 99 1007.4
20260904051003 54 59 0.0 0.0 0.00 0.02 0.02 99 1007.6
20260904050500 54 13 0.0 0.0 0.00 0.02 0.02 98 1007.6
20260904045955 54 20 0.0 0.0 0.00 0.02 0.02 98 1007.7
20260904045450 54 38 0.0 0.0 0.00 0.02 0.02 98 1007.9
20260904044944 54 17 0.0 0.0 0.00 0.02 0.02 98 1007.7
20260904044441 54 359 0.0 0.0 0.00 0.02 0.02 98 1007.6
20260904043937 55 40 0.0 0.0 0.00 0.02 0.02 98 1007.7
20260904043433 55 39 0.0 0.0 0.00 0.02 0.02 98 1007.8
20260904042929 55 38 0.0 0.0 0.00 0.02 0.02 97 1007.7
20260904042425 55 32 0.0 0.0 0.00 0.02 0.02 97 1007.7
20260904041919 55 48 0.0 0.0 0.00 0.02 0.02 97 1007.6
20260904041416 55 40 0.0 0.0 0.00 0.02 0.02 97 1007.6
20260904040912 55 49 0.0 0.0 0.00 0.02 0.02 97 1007.6
20260904040406 55 75 0.0 0.0 0.00 0.02 0.02 97 1007.6
20260904035902 55 29 0.0 0.0 0.00 0.02 0.02 97 1007.4
20260904035358 55 46 0.0 0.0 0.00 0.02 0.02 98 1007.3
20260904034857 55 33 0.0 0.0 0.00 0.02 0.02 98 1007.3
20260904034353 55 46 0.0 0.0 0.00 0.02 0.02 97 1007.3
20260904033848 55 32 0.0 1.0 0.00 0.02 0.02 98 1007.2
20260904033344 55 10 0.0 0.0 0.00 0.02 0.02 98 1007.1
20260904032840 55 7 0.0 0.0 0.00 0.02 0.02 99 1007.2
20260904032334 56 4 0.0 0.0 0.00 0.02 0.02 98 1007.0
20260904031828 56 25 0.0 0.0 0.00 0.02 0.02 99 1007.1
20260904031324 56 45 1.0 1.0 0.00 0.02 0.02 99 1007.1
20260904030820 56 31 0.0 0.0 0.00 0.02 0.02 98 1007.2
20260904030315 57 31 0.0 0.0 0.00 0.02 0.02 98 1007.1
20260904025811 57 31 0.0 0.0 0.00 0.02 0.02 97 1007.1
20260904025307 57 31 0.0 0.0 0.00 0.02 0.02 97 1006.9
20260904024807 57 31 0.0 0.0 0.00 0.02 0.02 97 1007.0
20260904024302 57 31 0.0 0.0 0.00 0.02 0.02 96 1007.1
20260904023759 58 31 0.0 0.0 0.00 0.02 0.02 96 1007.3
20260904023254 58 31 0.0 0.0 0.00 0.02 0.02 97 1006.9
20260904022753 59 29 0.0 0.0 0.00 0.02 0.02 96 1007.1
20260904022251 59 29 0.0 0.0 0.00 0.02 0.02 96 1007.0
20260904021746 59 30 0.0 0.0 0.00 0.02 0.02 95 1006.8
20260904021241 59 30 0.0 0.0 0.00 0.02 0.02 94 1006.8
20260904020737 59 32 0.0 0.0 0.00 0.02 0.02 91 1006.9
20260904020236 60 25 0.0 0.0 0.00 0.02 0.02 92 1007.0
20260904015735 61 15 0.0 0.0 0.00 0.02 0.02 91 1007.3
20260904015231 61 13 0.0 0.0 0.00 0.02 0.02 90 1007.0
20260904014729 62 352 0.0 0.0 0.00 0.02 0.02 89 1007.0
20260904014224 61 350 1.0 1.0 0.00 0.02 0.02 88 1007.1
20260904013721 61 22 0.0 0.0 0.00 0.02 0.02 93 1007.2
20260904013216 61 22 0.0 0.0 0.00 0.02 0.02 93 1007.1
20260904012712 61 22 0.0 0.0 0.00 0.02 0.02 92 1007.1
20260904012211 61 23 0.0 0.0 0.00 0.02 0.02 92 1007.0
20260904011711 61 21 0.0 0.0 0.00 0.02 0.02 93 1007.2
20260904011207 61 22 0.0 0.0 0.00 0.02 0.02 93 1007.2
20260904010701 61 21 0.0 0.0 0.00 0.02 0.02 92 1007.4
20260904010158 61 20 0.0 0.0 0.00 0.02 0.02 93 1007.3
20260904005653 61 19 0.0 0.0 0.00 0.02 0.02 92 1007.4
20260904005149 61 21 0.0 0.0 0.00 0.02 0.02 93 1007.4
20260904004643 61 11 0.0 0.0 0.00 0.02 0.02 92 1007.4
20260904004138 62 310 0.0 0.0 0.00 0.02 0.02 89 1007.4
20260904003634 62 309 0.0 0.0 0.00 0.02 0.02 81 1007.5
20260904003130 62 269 0.0 1.0 0.00 0.02 0.02 79 1007.6
20260904002625 63 34 0.0 0.0 0.00 0.02 0.02 89 1007.3
20260904002120 63 21 0.0 0.0 0.00 0.02 0.02 89 1007.5
20260904001615 63 12 0.0 0.0 0.00 0.02 0.02 86 1007.3
20260904001114 63 27 0.0 0.0 0.00 0.02 0.02 83 1007.4
20260904000609 63 353 0.0 0.0 0.00 0.02 0.02 83 1007.6
20260904000105 63 341 0.0 0.0 0.00 0.02 0.02 78 1007.5
20260903235604 63 353 0.0 0.0 0.00 0.02 0.02 82 1007.5
20260903235101 63 357 0.0 0.0 0.00 0.02 0.02 84 1007.5
20260903234555 63 16 0.0 0.0 0.00 0.02 0.02 86 1007.5
20260903234051 63 12 0.0 0.0 0.00 0.02 0.02 89 1007.6
20260903233547 62 0 0.0 0.0 0.00 0.02 0.02 85 1007.5
20260903233043 62 343 0.0 0.0 0.00 0.02 0.02 84 1007.5
20260903232538 62 10 0.0 0.0 0.00 0.02 0.02 79 1007.5
20260903232033 62 8 0.0 0.0 0.00 0.02 0.02 82 1007.5
20260903231527 62 349 0.0 0.0 0.00 0.02 0.02 81 1007.6
20260903231022 62 352 0.0 0.0 0.00 0.02 0.02 79 1007.7
20260903230518 63 28 0.0 0.0 0.00 0.02 0.02 85 1007.6
20260903230016 63 39 0.0 0.0 0.00 0.02 0.02 82 1007.6
20260903225514 62 15 0.0 0.0 0.00 0.02 0.02 84 1007.7
20260903225010 62 331 1.0 1.0 0.00 0.02 0.02 85 1007.7
20260903224506 62 121 3.0 3.0 0.00 0.02 0.02 84 1007.7
20260903224001 62 347 0.0 0.0 0.00 0.02 0.02 88 1007.8
20260903223500 62 18 0.0 0.0 0.00 0.02 0.02 88 1008.1
20260903223000 62 346 0.0 0.0 0.00 0.02 0.02 91 1008.0
20260903222455 62 306 0.0 0.0 0.00 0.02 0.02 91 1008.0
20260903221954 62 330 2.0 3.0 0.00 0.02 0.02 91 1008.1
20260903221450 62 346 0.0 0.0 0.00 0.02 0.02 90 1008.1
20260903220947 63 334 1.0 2.0 0.00 0.02 0.02 89 1008.0
20260903220442 63 342 2.0 3.0 0.00 0.02 0.02 89 1008.0
20260903215939 63 344 0.0 0.0 0.00 0.02 0.02 88 1007.9
20260903215436 64 341 2.0 2.0 0.00 0.02 0.02 86 1008.0
20260903214934 64 303 2.0 2.0 0.00 0.02 0.02 85 1007.9
20260903214430 64 342 0.0 1.0 0.00 0.02 0.02 87 1007.9
20260903213930 64 257 1.0 2.0 0.00 0.02 0.02 84 1007.8
20260903213425 64 350 1.0 1.0 0.00 0.02 0.02 84 1007.8
20260903212921 64 12 1.0 1.0 0.00 0.02 0.02 84 1007.7
20260903212417 64 5 0.0 0.0 0.00 0.02 0.02 87 1007.8
20260903211916 65 337 1.0 2.0 0.00 0.02 0.02 84 1007.9
20260903211412 65 356 3.0 5.0 0.00 0.02 0.02 85 1007.7
20260903210908 64 341 1.0 2.0 0.00 0.02 0.02 87 1007.7
20260903210408 64 356 2.0 2.0 0.00 0.02 0.02 88 1007.7
20260903205903 63 348 1.0 2.0 0.00 0.02 0.02 90 1007.5
20260903205403 63 337 2.0 2.0 0.00 0.02 0.02 90 1007.6
20260903204857 62 343 2.0 3.0 0.00 0.02 0.02 90 1007.5
20260903204353 63 346 2.0 3.0 0.00 0.02 0.02 89 1007.3
20260903203849 64 356 1.0 2.0 0.00 0.02 0.02 90 1007.3
20260903203345 63 351 0.0 0.0 0.00 0.02 0.02 92 1007.3
20260903202843 63 352 1.0 1.0 0.00 0.02 0.02 94 1007.5
20260903202340 63 350 0.0 0.0 0.00 0.02 0.02 93 1007.4
20260903201839 63 20 0.0 0.0 0.00 0.02 0.02 94 1007.3
20260903201335 63 4 0.0 0.0 0.00 0.02 0.02 94 1007.3
20260903200833 63 1 0.0 1.0 0.00 0.02 0.02 91 1007.4
20260903200329 63 13 0.0 0.0 0.00 0.02 0.02 92 1007.5
20260903195824 62 18 0.0 0.0 0.00 0.02 0.02 92 1007.7
20260903195321 63 345 0.0 0.0 0.00 0.02 0.02 93 1007.6
20260903194815 63 352 2.0 2.0 0.00 0.02 0.02 91 1007.8
20260903194311 63 347 0.0 0.0 0.00 0.02 0.02 91 1007.5
20260903193806 63 341 1.0 1.0 0.00 0.02 0.02 92 1007.6
20260903193302 63 351 1.0 1.0 0.00 0.02 0.02 90 1007.7
20260903192757 64 351 1.0 2.0 0.00 0.02 0.02 89 1007.4
20260903192253 63 343 0.0 1.0 0.00 0.02 0.02 93 1007.8
20260903191749 63 28 0.0 0.0 0.00 0.02 0.02 91 1007.9
20260903191244 62 19 0.0 0.0 0.00 0.02 0.02 92 1007.7
20260903190738 62 15 0.0 0.0 0.00 0.02 0.02 97 1008.0
20260903190233 61 2 1.0 1.0 0.00 0.02 0.02 98 1008.0
20260903185728 60 29 0.0 0.0 0.00 0.02 0.02 98 1008.0
20260903185222 61 9 0.0 0.0 0.00 0.02 0.02 99 1008.0
20260903184719 61 345 0.0 0.0 0.00 0.02 0.02 99 1008.0
20260903184215 61 354 0.0 0.0 0.00 0.02 0.02 99 1008.0
20260903183715 61 349 0.0 0.0 0.00 0.02 0.02 99 1008.0
20260903183209 60 351 0.0 0.0 0.00 0.02 0.02 99 1007.9
20260903182708 60 28 0.0 0.0 0.00 0.02 0.02 99 1007.8
20260903182203 60 26 0.0 0.0 0.00 0.02 0.02 99 1008.0